sat.trackr.live / text

‹ back to catalog

UNKNOWN

NORAD 87214

UNKNOWN UNKNOWN UNKNOWN

§ Identity

Operator
Country
Launch date
Launch site
Launch vehicle
Mass (kg)
RCS (m²)

External: N2YO · Heavens-Above

§ Orbital elements

Epoch: 2026-09-09T00:55:43.462272Z

Period
103.98 min
Inclination
100.3230°
Eccentricity
0.0067270
Mean motion
13.84847217 rev/d
Perigee alt
897.5 km
Apogee alt
996.0 km
Semi-major
7,324.9 km
B*
1.6919e-3
RAAN
282.3656°
Arg perigee
278.8428°
Mean anomaly
80.5111°
Rev number
63,764

§ Raw data

UNKNOWN1 87214U          26252.03869748  .00001890  00000+0  16919-2 0  99992 87214 100.3230 282.3656 0067270 278.8428  80.5111 13.84847217637643

JSON: /api/v1/satellites/87214 · /tle

For live sub-satellite position, see the globe view (requires WebGL).

§ Visibility from observer

Set your observer location to see the next 7 days of passes ≥ 10°. The values pass through the URL so the page stays shareable.

No JS? Fill the form by hand. The geolocation button needs JavaScript.